Location: Alto Pass Reservoir
(37.5801°N, 89.3084°W)
Time: 05:59:30
(UTC+00:00)

BlueWalker 3 - Visible Passes

Search period start: 28 November 2022 00:00
Search period end: 08 December 2022 00:00
Orbit: 500 x 519 km, 53.2° (Epoch: 27 November)

Date Brightness Start Highest point End Pass type
(mag) Time Alt. Az. Time Alt. Az. Time Alt. Az.
28 Nov 4.4 23:31:43 10° NW 23:33:52 14° NNW 23:36:00 10° NNE visible
29 Nov 4.4 23:13:31 10° NW 23:15:33 14° NNW 23:17:35 10° N visible
06 Dec 4.6 00:43:09 10° NNW 00:43:22 11° NNW 00:43:22 11° NNW visible
07 Dec 4.1 00:24:42 10° NNW 00:25:54 15° N 00:25:54 15° N visible
